BREEZE-M R/B, 38746

Orbit data source: Space-Track

BREEZE-M R/B, 38746 is space debris in LEO originally from a launch on Mon, 06 Aug 2012 UTC launched from the Tyuratam Missile And Space Complex (TTMTR). Debris objects in space refer to the collection of defunct objects orbiting the Earth. Examples of debris include non-operational satellites, rocket bodies, and fragments generated from explosions, collisions, or faulty payload assembly.

Loading next visibility...
Identifier
38746, 2012-044C
Orbit
LEO
Country
Flag of CISCIS
Related business
Manufacturer
Khrunichev
Mission
Spacecraft
Bus & Motor
BRIZ, Unknown motor
Mass
~14,208 kg wet, 1,470 kg dry
Launch date (UTC)
2012-08-06 (13 years ago)
Launch vehicle
Unknown
Launch site
Tyuratam Missile And Space Complex (TTMTR)
Object type
Payload
Rocket body
Debris
Shape & HBR
Cyl, 2.0 m
Radar Cross Section
15.135 m², Large (>1 m²)

Expand to show TLE details & history
Last TLE update: 15 hours ago

TLE from 15 hours ago
0 BREEZE-M R/B
1 38746U 12044C   25299.30323953  .00025598  00000-0  13260-2 0  9997
2 38746  49.6691  69.8099 2128110 216.1194 127.5540 11.09187736496843
Epoch: 2025-10-26T07:16Z
TLE epoch observation values (Epoch: 2025-10-26T07:16:39.895Z)
Latitude
-0.00007°
Longitude
-74.27776°
Altitude
3,415.743 km
Speed
5.873 km/s
True Right ascension
04h 39m 14s
True Declination
0° 00' 00"
Sunlit
Object was in partial shadow at epoch
Visualization orbit readout
Latitude
Unknown
Longitude
Unknown
Altitude
Unknown
Speed
Unknown
Apparent Right ascension
Unknown
Apparent Declination
Unknown
Sunlit
N/A
Visualization observer readout
Local Sidereal Time
17:52:11
Azimuth
Unknown
Elevation
Unknown
Doppler factor
Unknown
Orbital elements
Apogee altitude
3,923.233 km
Perigee altitude
308.087 km
Semi-major axis
8,493.797 km
Eccentricity
0.21281
Inclination
49.6691°
RAAN
69.8099°
Arg. of periapsis
216.1194°
True anomaly
143.95745°
Mean anomaly
127.554°
Eccentric anomaly
136.02089°
Mean motion
2.77262 °/min
Orbital period
129.84 mins
BSTAR
0.001326
Loading maneuver chart data...
Computing Atmospheric mass density...

Documentation

Showing up to 5 results
|